LiveATC.Net - Listen to live air traffic control over the Internet!


ICAO: KWVI  IATA: WVI   Airport: Watsonville Municipal Airport
City: Watsonville   State/Province: California
Country: United States   Continent: North America
KWVI METAR Weather: KWVI 181353Z AUTO 00000KT 10SM CLR 04/04 A3002 RMK AO2 SLP165 T00390039
KWVI Flight Activity (FlightAware)
KWVI Airport Info   (iFlightPlanner)
KWVI VFR Sectional Chart   (iFlightPlanner) 
KWVI IFR Low Chart   (iFlightPlanner) 

KWVI CTAF/NORCAL App
Feed Status: DOWN
Last heard on: 2021-10-10 23:59:39 (7 days 14 hours 18 minutes ago)
Archive Access: KWVI CTAF/NORCAL App
FacilityFrequency
KWVI CTAF122.800
NORCAL Approach (Watsonville)127.150
Feed sponsored by: Watsonville Municipal Airport

NOTICE

Unauthorized use prohibited. See LiveATC.net Terms of Service


Airport/ARTCC Code
Frequency Search
(e.g., 124.400, 128.75)
Site-wide search
 


Browse Feeds
Top 50 Feeds
HF Oceanic Feeds
Coverage Map
Bad Weather Areas

LiveATC FAQ
Offer LiveATC feed
Contact LiveATC.net
Press Inquiries

LiveATC on iPhone
LiveATC on Android

Windows Phone
Windows 8/10

LiveATC Mobile
(Mobile browser)

ATC Audio Archives
Interesting Recordings

LiveATC Forums


Home Page
About LiveATC.net
Make a Donation
Terms of Use
Privacy Policy

Canadian Air Freqs

AIRMETs/SIGMETs

FAA Airport Status
NAS Status
Arrival Demand


Server Software By:
Icecast.org
Liquidsoap